Wind_Speed
17 17 17 17 18 18 19 19 20 21 21 22 22 23 25 27 28 30 32 34 35 35 36 36 36 36 35 35 33 32 31 29 27 25 24 24 23 21 21 20 19 19
21 20 20 20 20 20 20 21 21 22 22 23 24 25 27 28 30 32 34 35 35 36 36 36 36 35 35 33 32 30 29 27 25 23 23 22 21 20 19 18 17 18
23 23 23 23 22 22 22 22 23 23 24 25 26 27 29 30 32 33 34 35 35 36 36 36 35 34 33 32 30 28 27 25 23 22 21 20 19 18 17 16 16 17
25 25 25 25 25 24 24 24 25 25 26 27 28 29 31 32 33 34 35 35 36 36 35 35 34 33 32 31 29 27 26 24 22 21 20 19 17 16 16 15 15 16
25 26 26 26 26 26 26 26 26 27 28 28 30 31 32 33 34 35 35 36 36 35 35 34 33 32 31 29 28 26 24 23 22 20 19 18 16 15 15 14 14 14
25 26 26 27 27 27 27 27 27 28 29 30 30 31 32 33 34 34 35 35 35 35 34 33 32 31 30 28 27 25 23 22 20 19 18 17 16 15 14 13 13 12
25 25 26 27 27 27 27 27 28 28 29 30 31 31 32 33 33 34 34 34 34 33 33 32 31 30 28 27 25 24 22 20 19 18 17 16 15 14 13 12 12 11
23 24 25 25 26 27 27 27 27 28 28 29 30 30 31 31 31 32 32 32 32 32 31 30 30 28 27 26 24 22 21 19 18 17 16 15 14 14 13 12 11 10
21 22 23 24 25 25 26 26 26 26 27 27 28 28 29 29 29 30 30 30 30 30 29 29 28 27 26 25 23 22 20 19 18 17 16 15 14 14 13 12 11 10
19 19 21 22 23 24 24 25 25 25 25 26 26 26 27 27 27 27 28 28 28 27 27 27 26 25 24 23 22 21 20 19 19 17 16 16 15 15 14 13 11 10
18 18 18 19 21 22 23 23 23 24 24 24 24 25 25 25 26 26 26 26 26 25 25 24 24 23 23 22 22 21 21 20 19 19 17 17 16 16 15 14 12 11
17 17 17 18 19 20 21 22 22 22 22 23 23 23 24 24 24 24 24 24 24 23 23 23 22 22 22 22 21 21 21 21 20 19 19 18 18 17 16 15 13 11
15 16 17 18 18 19 20 21 21 22 22 22 22 22 23 23 23 23 22 22 22 22 21 21 21 21 21 21 21 21 21 21 20 19 19 18 18 17 17 15 14 12
13 14 16 17 18 18 18 19 20 21 21 21 21 21 21 21 21 21 21 21 21 21 20 20 20 20 20 20 20 20 19 19 19 18 18 18 17 17 16 15 14 12
13 13 14 15 16 17 17 18 18 19 20 20 20 20 20 20 20 20 20 20 20 20 19 19 19 19 19 19 18 18 18 18 18 17 18 17 17 16 15 15 14 13
14 13 14 14 15 16 16 17 17 17 18 18 18 19 19 19 19 19 19 19 18 18 18 18 18 18 18 18 18 18 18 18 18 17 17 17 17 16 16 16 16 16
16 15 15 14 14 15 16 16 17 17 17 17 17 17 18 18 19 19 18 18 18 18 18 17 18 17 17 17 18 18 19 18 18 18 18 18 19 18 17 17 18 18
19 18 17 17 17 17 17 17 18 17 17 17 17 17 17 17 18 18 18 18 18 18 18 18 18 18 18 19 20 20 20 19 19 19 19 18 20 20 18 18 19 19
22 22 21 21 20 20 20 19 19 19 19 19 19 19 18 17 17 17 17 17 17 17 17 17 18 17 18 19 21 22 22 21 21 22 21 20 22 23 21 20 22 22
25 25 24 23 23 22 21 21 20 20 20 20 20 20 19 19 18 18 18 18 18 17 17 17 17 17 18 19 20 21 22 22 23 24 24 24 25 25 23 22 25 27
29 28 27 26 25 24 23 23 22 22 21 21 21 20 20 20 20 20 20 20 20 20 20 21 20 20 20 20 20 21 21 22 23 23 24 25 25 26 24 24 25 28
32 31 30 29 27 26 26 26 25 25 24 23 23 22 22 22 23 23 23 23 23 23 23 24 24 24 24 24 24 24 24 24 24 25 25 25 25 25 25 24 25 28
34 34 33 31 30 30 30 29 28 28 27 26 25 25 25 25 25 25 25 25 25 25 26 26 27 28 28 28 28 28 28 28 28 28 28 28 28 28 27 27 28 31
37 36 35 35 35 34 33 32 31 30 29 28 28 27 27 27 27 27 26 27 27 28 28 30 31 31 31 31 31 31 31 31 32 32 32 32 32 32 32 32 33 34
40 39 39 38 38 38 38 37 35 34 33 32 30 30 30 29 27 27 27 28 30 30 31 32 33 33 33 34 35 35 36 35 35 35 35 35 35 35 36 37 38 38
43 43 42 41 41 42 42 41 40 38 37 36 34 34 34 32 31 31 31 32 33 34 34 35 36 36 35 36 37 37 38 38 38 39 40 39 38 38 39 40 41 40
Wind_Direction
116 122 127 133 136 140 143 147 151 152 152 151 148 145 143 140 137 134 134 135 136 138 140 141 142 143 144 144 144 144 143 142 140 135 133 130 125 119 115 110 105 100
109 113 118 123 128 132 136 140 144 146 146 146 144 142 140 138 136 135 136 137 139 141 143 144 144 145 145 146 146 145 145 144 141 138 136 133 127 123 119 113 108 103
103 107 111 116 120 124 128 132 135 138 139 140 140 139 138 137 137 137 138 139 141 144 145 146 146 147 148 148 148 148 147 145 143 141 139 135 131 127 123 118 113 108
99 102 106 110 114 117 121 124 127 130 133 135 136 137 138 138 139 140 141 142 144 146 147 148 149 149 151 151 151 150 149 148 146 144 142 139 135 132 128 123 117 111
97 100 102 106 109 112 115 119 122 126 129 132 135 137 138 140 141 142 144 146 148 149 150 151 152 152 153 154 154 153 152 151 150 148 147 143 141 138 134 129 122 115
95 98 100 103 106 109 112 115 119 124 128 132 135 137 139 141 143 145 148 150 151 152 153 154 155 155 156 156 156 156 155 155 154 153 152 150 148 146 141 136 129 122
94 97 100 102 104 108 111 115 119 123 128 132 135 138 140 142 145 148 151 153 154 155 156 157 158 158 159 159 159 160 160 160 161 160 159 157 156 153 150 145 140 134
96 99 102 104 106 109 112 115 120 124 128 133 136 139 141 144 147 150 153 155 156 158 159 160 161 162 162 163 164 165 167 167 168 168 167 166 165 163 160 156 152 146
98 102 104 108 110 112 115 117 121 126 130 134 137 140 142 145 148 151 154 157 159 161 162 163 165 165 166 168 170 172 174 175 176 176 176 176 175 173 170 168 164 158
102 105 108 112 115 117 120 121 124 128 132 136 139 142 144 147 150 153 155 158 161 163 165 167 168 169 171 173 176 178 180 182 183 184 185 185 184 182 181 178 174 170
109 111 114 117 120 123 126 127 129 131 134 138 141 144 147 150 152 155 158 161 163 166 168 170 172 175 177 179 182 184 186 188 189 191 193 193 193 191 190 188 185 183
119 120 122 125 127 129 131 133 135 136 138 141 144 147 150 152 155 158 160 163 166 169 171 174 177 180 183 186 188 190 192 193 195 197 198 199 199 199 198 197 195 196
132 131 131 133 136 137 138 139 140 142 144 146 149 152 154 156 159 161 164 167 170 173 176 179 182 185 189 192 195 197 198 200 201 202 203 204 205 205 205 205 206 207
149 145 142 141 142 145 147 149 149 150 152 154 156 159 161 163 165 168 170 173 176 179 182 184 187 190 194 197 200 202 204 205 207 208 209 209 211 212 213 214 216 220
164 159 155 151 149 151 154 157 160 161 162 163 165 167 169 172 174 176 178 180 182 185 187 190 193 196 199 202 205 207 208 210 211 212 213 214 217 220 223 226 229 235
180 174 170 166 162 160 160 161 164 168 171 174 175 178 179 181 184 186 187 189 191 192 195 197 199 202 206 209 211 212 214 215 215 215 216 217 219 223 229 234 236 241
194 190 186 183 180 176 172 171 170 171 175 179 182 187 190 192 195 197 198 200 201 203 205 205 207 210 215 218 218 218 218 218 219 220 222 225 227 226 229 234 237 240
204 201 198 197 196 193 189 186 184 182 183 184 187 191 194 197 200 203 206 209 211 214 216 216 218 221 225 227 227 225 222 222 224 226 226 233 237 235 235 238 239 239
213 209 206 205 205 203 202 199 195 194 195 195 196 197 198 201 205 207 209 211 214 217 220 224 228 229 231 233 232 231 228 227 230 231 230 233 239 240 241 246 248 246
220 217 215 212 211 211 212 210 206 205 205 206 206 206 206 208 212 216 218 218 218 219 221 226 231 232 235 237 236 236 236 234 236 238 237 239 243 244 245 249 252 253
224 224 222 219 217 217 218 219 218 217 216 217 217 217 217 216 217 221 224 226 227 226 227 230 233 232 235 238 238 240 241 240 240 241 241 243 247 248 248 250 254 256
228 227 225 223 221 222 223 223 223 223 223 224 225 226 227 227 226 226 227 229 233 234 235 236 237 237 238 239 239 240 242 243 243 244 244 244 245 247 249 251 255 256
231 230 229 227 226 226 226 227 228 228 228 228 229 231 233 235 236 236 235 235 236 238 241 242 241 241 241 242 242 243 243 244 245 245 246 246 246 247 248 249 250 252
234 234 233 231 230 229 230 231 231 231 232 233 234 235 238 239 241 243 244 245 245 244 244 245 244 243 244 244 245 245 246 246 246 246 247 247 248 249 250 249 249 250
238 238 238 236 235 235 234 234 234 234 235 235 237 239 241 243 245 247 247 248 250 250 248 248 248 246 245 246 247 247 248 249 249 249 249 248 249 250 250 251 252 252
239 240 240 240 239 239 239 238 238 237 237 238 239 242 244 245 249 252 252 251 251 251 250 251 251 249 247 247 248 249 251 252 253 253 252 252 251 250 250 252 253 254
Height
10962 10962 10962 10963 10963 10964 10964 10965 10966 10968 10969 10970 10972 10973 10975 10976 10978 10980 10982 10984 10986 10988 10990 10992 10994 10996 10998 11000 11001 11002 11004 11005 11006 11007 11009 11010 11010 11011 11011 11012 11012 11012
10964 10964 10964 10964 10965 10965 10966 10967 10968 10969 10970 10972 10973 10975 10977 10978 10980 10982 10984 10986 10989 10991 10993 10995 10997 10999 11001 11002 11004 11005 11006 11007 11008 11010 11011 11012 11012 11013 11013 11014 11014 11014
10967 10967 10967 10967 10967 10967 10968 10969 10970 10971 10972 10973 10975 10977 10979 10980 10983 10985 10987 10989 10991 10993 10996 10998 11000 11002 11003 11005 11006 11007 11008 11009 11010 11012 11012 11013 11014 11015 11015 11015 11016 11016
10970 10970 10969 10969 10969 10970 10970 10971 10972 10973 10974 10976 10977 10979 10981 10983 10985 10987 10989 10992 10994 10996 10998 11000 11002 11004 11006 11007 11008 11009 11010 11011 11012 11013 11014 11015 11016 11016 11017 11017 11017 11017
10973 10973 10972 10972 10972 10973 10973 10974 10975 10976 10977 10979 10981 10982 10984 10986 10988 10990 10992 10994 10996 10998 11001 11003 11004 11006 11007 11009 11010 11011 11012 11013 11014 11015 11016 11017 11017 11018 11018 11019 11019 11019
10977 10976 10976 10976 10976 10976 10977 10978 10979 10980 10981 10983 10984 10986 10988 10990 10992 10994 10995 10997 10999 11001 11003 11005 11006 11008 11010 11011 11012 11013 11014 11015 11016 11017 11018 11018 11019 11019 11020 11020 11020 11021
10981 10980 10980 10980 10980 10980 10981 10982 10983 10984 10985 10987 10988 10990 10991 10993 10995 10997 10999 11000 11002 11003 11005 11007 11008 11010 11012 11013 11014 11015 11016 11017 11018 11019 11019 11020 11020 11021 11021 11022 11022 11022
10984 10984 10984 10984 10984 10984 10985 10985 10986 10988 10989 10990 10992 10993 10995 10996 10998 11000 11001 11003 11004 11006 11007 11009 11010 11012 11013 11014 11015 11016 11017 11018 11019 11020 11020 11021 11022 11022 11022 11023 11023 11023
10987 10987 10987 10987 10987 10988 10988 10989 10990 10991 10992 10994 10995 10996 10998 10999 11000 11002 11004 11005 11007 11008 11010 11011 11012 11013 11014 11016 11017 11018 11019 11019 11020 11021 11021 11022 11022 11023 11023 11024 11024 11024
10990 10990 10990 10990 10990 10991 10991 10992 10993 10994 10995 10996 10998 10999 11000 11001 11003 11004 11006 11007 11009 11010 11011 11013 11014 11015 11016 11017 11018 11019 11020 11020 11021 11022 11022 11023 11023 11024 11024 11024 11025 11025
10992 10992 10992 10993 10993 10993 10994 10995 10996 10997 10997 10999 11000 11001 11002 11003 11005 11006 11007 11009 11010 11011 11013 11014 11015 11016 11017 11018 11019 11019 11020 11021 11021 11022 11023 11023 11024 11024 11025 11025 11025 11026
10994 10994 10994 10995 10995 10996 10996 10997 10998 10999 11000 11001 11002 11003 11004 11005 11006 11007 11009 11010 11011 11012 11014 11015 11016 11017 11018 11019 11019 11020 11021 11021 11022 11022 11023 11024 11024 11025 11025 11026 11026 11026
10996 10996 10996 10996 10997 10997 10998 10999 10999 11000 11001 11002 11003 11004 11005 11006 11007 11008 11009 11011 11012 11013 11014 11015 11016 11017 11018 11019 11020 11020 11021 11022 11022 11023 11024 11024 11025 11025 11026 11026 11026 11026
10996 10997 10997 10997 10998 10998 10999 11000 11001 11001 11002 11003 11004 11005 11006 11007 11008 11009 11010 11011 11012 11013 11014 11015 11016 11017 11018 11019 11019 11020 11021 11022 11023 11023 11024 11025 11025 11026 11026 11027 11027 11027
10997 10998 10999 10999 10999 10999 11000 11001 11001 11002 11003 11004 11005 11005 11006 11007 11008 11009 11010 11010 11011 11012 11013 11014 11015 11016 11017 11018 11019 11020 11021 11021 11022 11023 11024 11024 11025 11025 11026 11026 11027 11027
10998 10999 11000 11000 11000 11000 11000 11001 11002 11003 11003 11004 11005 11006 11006 11007 11008 11009 11010 11010 11011 11012 11013 11014 11015 11016 11017 11018 11018 11019 11020 11021 11021 11022 11023 11023 11024 11024 11025 11025 11025 11025
10998 10999 11000 11001 11001 11001 11001 11001 11001 11002 11003 11004 11004 11005 11006 11007 11007 11008 11009 11010 11011 11012 11013 11014 11015 11016 11017 11017 11017 11018 11019 11020 11020 11021 11022 11022 11023 11023 11023 11023 11023 11023
10996 10998 10999 11000 11000 11000 11000 11001 11001 11001 11002 11002 11003 11004 11005 11005 11006 11007 11008 11009 11010 11011 11012 11013 11014 11014 11015 11015 11016 11016 11017 11019 11020 11020 11021 11022 11022 11021 11021 11022 11022 11021
10995 10996 10996 10997 10998 10999 10999 11000 11000 11000 11001 11001 11002 11002 11003 11004 11005 11006 11007 11008 11008 11009 11011 11011 11012 11013 11013 11013 11014 11014 11016 11017 11018 11018 11018 11019 11018 11018 11019 11020 11021 11020
10993 10994 10994 10995 10996 10997 10998 10999 10999 11000 11000 11000 11000 11001 11002 11003 11004 11005 11006 11006 11007 11007 11008 11009 11010 11011 11011 11011 11012 11013 11013 11014 11015 11015 11016 11016 11015 11015 11016 11018 11018 11018
10990 10991 10991 10992 10993 10994 10995 10996 10997 10998 10998 10998 10999 11000 11000 11001 11002 11002 11003 11005 11005 11006 11006 11006 11006 11007 11007 11008 11009 11010 11011 11011 11011 11012 11013 11013 11013 11013 11014 11014 11015 11015
10985 10986 10988 10989 10991 10992 10992 10992 10993 10994 10995 10996 10996 10997 10998 10999 10999 10999 11000 11001 11003 11004 11004 11004 11004 11004 11003 11004 11005 11006 11006 11007 11008 11009 11009 11009 11010 11010 11010 11011 11012 11011
10981 10983 10984 10986 10987 10988 10988 10989 10989 10990 10991 10992 10993 10993 10994 10995 10996 10997 10998 10999 10999 11000 11001 11002 11001 11001 11001 11001 11001 11001 11002 11002 11003 11004 11005 11006 11007 11007 11008 11009 11008 11006
10978 10979 10981 10982 10983 10984 10984 10985 10986 10987 10988 10988 10989 10990 10990 10991 10992 10994 10995 10996 10996 10996 10997 10997 10997 10998 10998 10998 10998 10998 10998 10998 10998 10999 11000 11001 11002 11003 11004 11004 11002 11001
10974 10974 10976 10977 10978 10979 10980 10981 10982 10982 10983 10985 10986 10986 10986 10987 10988 10989 10991 10992 10992 10992 10992 10992 10992 10993 10994 10994 10994 10994 10994 10994 10994 10994 10995 10996 10997 10998 10998 10997 10996 10996
10968 10969 10970 10972 10973 10974 10975 10977 10978 10978 10979 10980 10981 10981 10982 10983 10984 10985 10986 10986 10987 10987 10987 10987 10987 10988 10988 10989 10989 10989 10989 10989 10989 10989 10989 10990 10991 10992 10991 10991 10991 10992